Tracking 19644 objects as of 26-Apr-2019
HD Live streaming from Space Station
objects crossing your sky now

CZ-4 DEB

Track CZ-4 DEB now!
10-day predictions


NORAD ID: 26150
Int'l Code: 1999-057AL
Perigee: 719.6 km
Apogee: 1,251.9 km
Inclination: 99.0 °
Period: 104.7 minutes
Semi major axis: 7356 km
RCS: 0.0099 m2 (small)
Launch date: October 14, 1999
Source: People's Republic of China (PRC)
Launch site: Taiyaun Space Center, China (TSC)

Note: This is SATELLITE DEBRIS
aabbcc
Your satellite tracking list
Your tracking list is empty




NASA's NSSDC Master Catalog

Two Line Element Set (TLE):
1 26150U 99057AL  19115.39081021  .00000112  00000-0  97558-4 0  9997
2 26150  99.0341 259.0951 0361795 177.3266 249.7206 13.75858330956100
Source of the keplerian elements: AFSPC